Home   Weather   Remscheid   Past weeks

Flag for Germany Past Weather in Remscheid, North Rhine-Westphalia, Germany — Yesterday and Last 2 Weeks

Now
54 °F

Passing clouds.


Feels Like: 52 °F
Forecast: 37 / 61 °F
Wind: 7 mph from East

Location: Duesseldorf

Current Time: Apr 29, 2017 at 8:03:15 pm

Latest Report: Apr 29, 2017 at 7:20 pm


Visibility: N/A

Pressure: 30.04 "Hg

Humidity: 41%

Dew Point: 30 °F

Location of RemscheidLocation

Past Weather in Remscheid — Graph

°F

Remscheid Temperature Yesterday

Maximum temperature yesterday: 54 °F (at 3:20 pm)
Minimum temperature yesterday: 34 °F (at 3:50 am)
Average temperature yesterday: 44 °F

High & Low Weather Summary for the Past Weeks

 TemperatureHumidityPressure
High59 °F (Apr 21, 3:20 pm)100% (Apr 26, 5:20 am)30.63 "Hg (Apr 26, 5:20 am)
Low27 °F (Apr 20, 4:50 am)30% (Apr 20, 5:20 pm)29.71 "Hg (Apr 25, 12:50 am)
Average45 °F68%30.14 "Hg
* Reported Apr 14 6:20 pm — Apr 29 6:50 pm, Remscheid, Weather by CustomWeather, © 2017

Note: Actual official high and low records may vary slightly from our data, if they occured in-between our weather recording intervals... More about our weather records

Advertising

Remscheid Weather History for the Previous 24 Hours

Scroll right to see more
 ConditionsComfort  
Time TempWeatherWind HumidityBarometerVisibility
6:50 pm
Sat, Apr 29
55 °FPassing clouds.8 mph41%30.04 "HgN/A
6:20 pm57 °FSunny.3 mph36%30.04 "Hg10 mi
5:50 pm57 °FSunny.5 mph39%30.04 "Hg10 mi
5:20 pm57 °FSunny.3 mph36%30.04 "Hg10 mi
4:50 pm55 °FPassing clouds.6 mph38%30.04 "HgN/A
4:20 pm57 °FPassing clouds.6 mph39%30.07 "HgN/A
3:50 pm55 °FPassing clouds.5 mph38%30.07 "HgN/A
3:20 pm55 °FSunny.6 mph44%30.07 "Hg10 mi
2:50 pm54 °FSunny.3 mph44%30.07 "Hg10 mi
2:20 pm52 °FPassing clouds.5 mph44%30.07 "HgN/A
1:50 pm54 °FScattered clouds.6 mph44%30.07 "HgN/A
1:20 pm52 °FScattered clouds.5 mph44%30.07 "HgN/A
12:50 pm52 °FPartly sunny.3 mph47%30.09 "HgN/A
12:20 pm52 °FScattered clouds.3 mph47%30.09 "HgN/A
11:50 am48 °FScattered clouds.3 mph54%30.09 "HgN/A
11:20 am50 °FScattered clouds.2 mph54%30.09 "HgN/A
10:50 am50 °FPassing clouds.3 mph47%30.09 "HgN/A
10:20 am48 °FPassing clouds.2 mph62%30.07 "HgN/A
9:50 am48 °FPassing clouds.3 mph62%30.07 "HgN/A
9:20 am45 °FPassing clouds.3 mph76%30.07 "HgN/A
8:50 am43 °FPassing clouds.3 mph81%30.07 "HgN/A
8:20 am41 °FSunny.2 mph81%30.07 "Hg10 mi
7:50 am39 °FPassing clouds.5 mph87%30.07 "HgN/A
7:20 am37 °FSunny.5 mph87%30.07 "Hg10 mi
6:50 am37 °FSunny.5 mph87%30.07 "Hg10 mi
6:20 am36 °FSunny.2 mph93%30.07 "Hg10 mi
5:50 am36 °FClear.1 mph87%30.07 "Hg10 mi
5:20 am34 °FPassing clouds.1 mph93%30.07 "HgN/A
4:50 am34 °FPassing clouds.1 mph93%30.04 "HgN/A
4:20 am36 °FPassing clouds.2 mph93%30.04 "HgN/A
3:50 am39 °FPassing clouds.3 mph81%30.04 "HgN/A
3:20 am39 °FPassing clouds.5 mph81%30.04 "HgN/A
2:50 am41 °FPassing clouds.2 mph76%30.04 "HgN/A
2:20 am39 °FPassing clouds.5 mph87%30.04 "HgN/A
1:50 am41 °FPassing clouds.3 mph81%30.04 "HgN/A
1:20 am41 °FQuite cool.2 mph81%30.04 "HgN/A
12:50 am43 °FClear.6 mph76%30.04 "Hg10 mi
12:20 am43 °FClear.7 mph76%30.01 "Hg10 mi
11:50 pm
Fri, Apr 28
43 °FClear.7 mph76%30.01 "Hg10 mi
10:50 pm46 °FClear.8 mph66%30.01 "Hg10 mi
10:20 pm46 °FPassing clouds.6 mph66%30.01 "HgN/A
9:50 pm48 °FPassing clouds.8 mph62%29.98 "HgN/A
9:20 pm48 °FPassing clouds.7 mph66%29.98 "HgN/A
8:50 pm50 °FPartly cloudy.3 mph67%29.98 "HgN/A
8:20 pm50 °FSprinkles. Partly sunny.5 mph67%29.98 "HgN/A
Weather by CustomWeather, © 2017

See weather overviewHow to use our weather pages